Regional Weather Roundup
Issued by NWS

Home | Current Version | Previous Version | Graphics & Text | Print | Product List | Glossary On
Versions: 1 2 3 4 5 6 7 8 9 10 11 12 13 14 15 16 17 18 19 20 21 22 23 24 25 26 27 28 29 30 31 32 33 34 35 36 37 38 39 40 41 42 43 44 45 46 47 48 49 50
415
ASUS43 KDTX 280101
RWRMI
MICHIGAN HOURLY REGIONAL WEATHER ROUNDUP
NATIONAL WEATHER SERVICE DETROIT/PONTIAC MI
900 PM EDT SAT AUG 27 2016

NOTE: "FAIR" INDICATES FEW OR NO CLOUDS BELOW 12,000 FEET WITH NO
SIGNIFICANT WEATHER AND/OR OBSTRUCTION TO VISIBILITY.

MIZ047>049-052>055-059>063-066>070-074>076-081>083-280200-
SOUTHEAST LOWER MICHIGAN

CITY           SKY/WX    TMP DP  RH WIND       PRES   REMARKS
ADRIAN         CLOUDY    72  72 100 S3        30.12R
ALMA           CLEAR     70  69  99 W8        30.09R FOG
ANN ARBOR      CLOUDY    72  71  97 SE6       30.11R
CARO           CLOUDY    69  68  97 CALM      30.09R
DETROIT CITY   MOCLDY    71  71 100 S8        30.11R
DETROIT        MOCLDY    72  71  97 SE5       30.12R
FLINT          MOCLDY    73  69  87 SW5       30.10R
GROSSE ILE     PTCLDY    73  71  93 SE5       30.11R
HILLSDALE      CLOUDY    73  71  93 SE6       30.12R
HOWELL         MOCLDY    71  69  96 S3        30.11R

CITY           SKY/WX    TMP DP  RH WIND       PRES   REMARKS
JACKSON        CLEAR     73  72  96 SE7       30.11R
LAMBERTVILLE   CLEAR     73  71  93 S3        30.12S
LANSING        CLEAR     73  69  87 S7        30.09R
LAPEER         FAIR      69  68  95 CALM      30.10R
MASON          CLEAR     70  68  94 S5        30.10R
MONROE         PTCLDY    73  72  95 S3        30.10F
MT. CLEMENS    PTCLDY    70  69  97 SE6       30.09R
PONTIAC        CLOUDY    71  69  93 S8        30.11R
PORT HURON     CLOUDY    68  66  94 SE5       30.10S
TRI CITIES     CLEAR     71  70  96 S5        30.08R
MIDLAND        FAIR      71  69  94 CALM      30.07R
TROY           CLOUDY    73  70  92 SE3       30.13R
SAGINAW HB     CLEAR     70  68  94 S6        30.07S
$$
MIZ043>046-050>051-056>058-064>065-071>073-077>080-280200-
SOUTHWEST LOWER MICHIGAN

CITY           SKY/WX    TMP DP  RH WIND       PRES   REMARKS
BATTLE CREEK   CLEAR     73  73 100 S6        30.09R
BENTON HARBOR  PTCLDY    79  72  79 SE5       30.05R
BIG RAPIDS     CLOUDY    73  69  88 CALM      30.07R
COLDWATER      CLEAR     75  71  87 S5        30.10R
FREMONT        CLOUDY    72  71  95 CALM      30.05S
HOLLAND        CLOUDY    74  70  87 SE5       30.06R
GRAND RAPIDS   MOCLDY    74  69  85 S5        30.07R
IONIA          CLOUDY    71  69  93 SE3       30.07R
KALAMAZOO      CLEAR     77  70  79 SE3       30.08R
LUDINGTON      CLOUDY    73  70  92 S5        30.03S
MARSHALL       CLEAR     75  73  94 SE3       30.09R
MOUNT PLEASANT PTCLDY    72  69  92 CALM      30.07R
MUSKEGON       MOCLDY    76  71  85 S6        30.05R
SOUTH HAVEN    MOCLDY    78  75  91 SE5       30.05R
$$
MIZ016>042-280200-
NORTHERN LOWER MICHIGAN

CITY           SKY/WX    TMP DP  RH WIND       PRES   REMARKS
ALPENA         CLOUDY    69  66  90 SE7       30.08S
BEAVER ISLAND  HVY RAIN  64  64  99 N3        30.04S
BELLAIRE       CLOUDY    71  66  83 S6        30.03F
CADILLAC       CLOUDY    70  66  88 SE5       30.07S
CHARLEVOIX     CLOUDY    70  67  89 SE5       30.06S
FRANKFORT      CLOUDY    71  68  93 CALM      30.03R
GAYLORD        CLOUDY    68  64  87 S7        30.08S
GRAYLING       CLOUDY    68  67  96 SE6       30.09R
HARBOR SPRINGS MOCLDY    67  65  93 E5        30.04S
HOUGHTON LAKE  CLOUDY    69  66  90 SE3       30.08S
MANISTEE       CLOUDY    71  70  96 CALM      30.03S
OSCODA         CLOUDY    71  69  93 S6        30.07S
PELLSTON       MOCLDY    67  63  87 SE6       30.05F
ROGERS CITY    CLOUDY    69  66  90 SE8       30.08S
TRAVERSE CITY  CLOUDY    73  67  81 CALM      30.02S
$$
MIZ007>008-015-280200-
EASTERN UPPER MICHIGAN

CITY           SKY/WX    TMP DP  RH WIND       PRES   REMARKS
KINROSS        RAIN      63  62  97 E6        30.07F
MACKINAC ISLAN CLOUDY    65  65 100 SE6       30.05S
NEWBERRY       CLOUDY    62  61  97 E5        30.06S
S. S. MARIE    LGT RAIN  62  61  96 E5        30.07F FOG
$$
MIZ004>006-011>014-085-280200-
CENTRAL UPPER MICHIGAN

CITY           SKY/WX    TMP DP  RH WIND       PRES   REMARKS
MANISTIQUE     CLOUDY    64  61  91 CALM      30.04F
ESCANABA       CLOUDY    65  62  90 CALM      30.04F
MENOMINEE      CLOUDY   N/A N/A N/A CALM      30.05F
$$
MIZ001>003-009>011-084-280200-
WESTERN UPPER MICHIGAN

CITY           SKY/WX    TMP DP  RH WIND       PRES   REMARKS
IRON MOUNTAIN  CLOUDY    64  58  80 S3        30.04F
HOUGHTON       CLOUDY    63  61  93 E8        30.03F
IRONWOOD       CLOUDY    61  60  97 E3        30.04S
$$

ABBREVIATIONS USED IN REMARKS
   TC - TEMPERATURE IN CELSIUS
  WCI - WIND CHILL INDEX
   HX - HEAT INDEX
  VSB - VISIBILITY





USA.gov is the U.S. government's official web portal to all federal, state and local government web resources and services.